This demonstration page uses our WeatherBlox Daily Observations layout. Learn more.

Left ArrowRight Arrow

Hourly Observations for December 24, 2015

Temp ( °F °C ) Dew Point ( °F °C ) Humidity (%) Winds ( mph kmh ) Pressure ( in mb ) Visibility ( mi km ) Precip ( " mm )
12:58 am 00:58 Clear 26 -3.6 25 -4.1 96 96 W 1 2 29.71 1006 10 16 0.00 0.00
1:58 am 01:58 Clear 24 -4.3 23 -5 95 95 WNW 1 2 29.74 1007 10 16 0.00 0.00
2:58 am 02:58 Clear 24 -4.7 22 -5.3 96 96 NNW 1 2 29.75 1008 10 16 0.00 0.00
3:58 am 03:58 Mostly Cloudy 27 -2.9 26 -3.5 96 96 NNW 5 7 29.79 1009 10 16 0.00 0.00
4:58 am 04:58 Cloudy 30 -1.3 27 -2.6 91 91 Calm 29.80 1009 10 16 0.00 0.00
5:58 am 05:58 Cloudy 29 -1.7 28 -2.3 96 96 Calm 29.82 1010 10 16 0.00 0.00
6:16 am 06:16 Cloudy with Light Wintry Mix 30 -1 28 -2 93 93 Calm 29.80 1009 10 16 0.00 0.00
6:25 am 06:25 Cloudy with Light Snow 30 -1 28 -2 93 93 Calm 29.85 1011 10 16 0.00 0.00
6:38 am 06:38 Cloudy with Light Snow 30 -1 28 -2 93 93 Calm 29.85 1011 4 6 0.00 0.00
6:43 am 06:43 Cloudy with Light Snow 30 -1 28 -2 93 93 SSE 2 4 29.85 1011 3 4 0.00 0.00
6:50 am 06:50 Cloudy with Light Snow 30 -1 28 -2 93 93 E 3 6 29.85 1011 1 2 0.00 0.00
6:52 am 06:52 Cloudy with Light Snow 30 -1 28 -2 93 93 E 3 6 29.85 1011 1 2 0.00 0.00
6:56 am 06:56 Cloudy with Light Snow 30 -1 28 -2 93 93 ENE 5 7 29.85 1011 1 2 0.00 0.00
6:58 am 06:58 Cloudy with Light Snow 30 -1 28 -2 93 93 NE 6 9 29.84 1011 1 2 0.00 0.03
7:03 am 07:03 Cloudy with Light Snow 30 -1 28 -2 93 93 NE 6 9 29.85 1011 1 2 0.00 0.00
7:12 am 07:12 Cloudy with Light Snow 28 -2 28 -2 100 100 NNE 5 7 29.85 1011 1 2 0.00 0.00
7:17 am 07:17 Cloudy with Light Snow 28 -2 28 -2 100 100 NNE 5 7 29.85 1011 1 2 0.00 0.00
7:19 am 07:19 Cloudy with Light Snow 28 -2 28 -2 100 100 NNE 3 6 29.85 1011 1 2 0.00 0.00
7:26 am 07:26 Cloudy with Light Snow 28 -2 28 -2 100 100 NNE 2 4 29.88 1012 2 3 0.00 0.00
7:35 am 07:35 Cloudy with Light Snow 28 -2 28 -2 100 100 NE 2 4 29.88 1012 2 3 0.00 0.00
7:40 am 07:40 Cloudy with Light Snow 28 -2 28 -2 100 100 NE 3 6 29.88 1012 2 3 0.00 0.00
7:44 am 07:44 Cloudy with Light Snow 28 -2 28 -2 100 100 NE 2 4 29.88 1012 2 2 0.00 0.00
7:51 am 07:51 Cloudy with Light Snow 28 -2 28 -2 100 100 NNE 2 4 29.88 1012 1 1 0.00 0.00
7:58 am 07:58 Cloudy with Light Snow 29 -1.6 29 -1.7 99 99 NE 3 6 29.86 1011 1 1 0.00 0.03
8:01 am 08:01 Cloudy with Snow 28 -2 28 -2 100 100 NE 3 6 29.88 1012 1 1 0.00 0.00
8:09 am 08:09 Cloudy with Light Snow 28 -2 28 -2 100 100 NE 3 6 29.88 1012 1 1 0.00 0.00
8:15 am 08:15 Cloudy with Light Snow 28 -2 28 -2 100 100 NE 2 4 29.88 1012 1 1 0.00 0.00
8:31 am 08:31 Mostly Cloudy with Light Snow 28 -2 28 -2 100 100 ENE 3 6 29.88 1012 1 1 0.00 0.00
8:38 am 08:38 Mostly Cloudy with Light Snow 28 -2 28 -2 100 100 NE 5 7 29.88 1012 1 1 0.00 0.00
8:46 am 08:46 Cloudy with Snow 28 -2 28 -2 100 100 NE 5 7 29.88 1012 1 1 0.00 0.00
8:58 am 08:58 Cloudy with Snow 28 -2 28 -2 100 100 NNE 3 6 29.88 1012 1 1 0.00 0.03
9:13 am 09:13 Cloudy with Light Snow 28 -2 28 -2 100 100 NNE 5 7 29.88 1012 1 1 0.00 0.00
9:19 am 09:19 Cloudy with Light Snow 28 -2 28 -2 100 100 N 5 7 29.91 1013 1 2 0.00 0.00
9:24 am 09:24 Cloudy with Light Snow 28 -2 28 -2 100 100 NNE 5 7 29.91 1013 1 1 0.00 0.00
9:26 am 09:26 Cloudy with Snow 28 -2 28 -2 100 100 NE 6 9 29.88 1012 1 1 0.00 0.00
9:28 am 09:28 Cloudy with Snow 28 -2 28 -2 100 100 NE 6 9 29.88 1012 1 1 0.00 0.00
9:33 am 09:33 Cloudy with Snow 28 -2 28 -2 100 100 NNE 5 7 29.91 1013 1 1 0.00 0.00
9:43 am 09:43 Cloudy with Snow 30 -1 28 -2 93 93 NNE 6 9 29.91 1013 1 1 0.00 0.00
9:50 am 09:50 Cloudy with Snow 30 -1 28 -2 93 93 NNE 6 9 29.91 1013 1 1 0.00 0.00
9:58 am 09:58 Cloudy with Snow 29 -1.4 29 -1.5 99 99 NNE 6 9 29.89 1012 1 1 0.00 0.03
10:07 am 10:07 Cloudy with Snow 30 -1 30 -1 100 100 NNE 5 7 29.91 1013 1 1 0.00 0.00
10:18 am 10:18 Cloudy with Light Snow 30 -1 30 -1 100 100 N 5 7 29.94 1014 1 1 0.00 0.00
10:24 am 10:24 Cloudy with Light Snow 30 -1 30 -1 100 100 N 5 7 29.94 1014 1 2 0.00 0.00
10:26 am 10:26 Cloudy with Light Snow 30 -1 30 -1 100 100 N 5 7 29.94 1014 1 2 0.00 0.00
10:27 am 10:27 Cloudy with Light Snow 30 -1 30 -1 100 100 N 5 7 29.94 1014 1 1 0.00 0.00
10:30 am 10:30 Cloudy with Light Snow 30 -1 30 -1 100 100 N 6 9 29.94 1014 1 1 0.00 0.00
10:41 am 10:41 Cloudy with Snow 30 -1 30 -1 100 100 N 5 7 29.94 1014 1 1 0.00 0.00
10:48 am 10:48 Cloudy with Freezing Fog 30 -1 30 -1 100 100 NNE 5 7 29.94 1014 0 0 0.00 0.00
10:58 am 10:58 Cloudy with Snow 30 -1.2 30 -1.3 99 99 NNE 7 11 29.92 1013 0 0 0.00 0.03
11:05 am 11:05 Mostly Cloudy with Heavy Snow 30 -1 30 -1 100 100 N 7 11 29.94 1014 0 0 0.00 0.00
11:10 am 11:10 Mostly Cloudy with Snow 30 -1 30 -1 100 100 N 8 13 29.94 1014 1 1 0.00 0.00
11:14 am 11:14 Mostly Cloudy with Light Snow 30 -1 30 -1 100 100 N 7 11 29.94 1014 1 1 0.00 0.00
11:17 am 11:17 Mostly Cloudy with Light Snow 30 -1 30 -1 100 100 NNW 7 11 29.94 1014 1 2 0.00 0.00
11:26 am 11:26 Cloudy with Light Snow 30 -1 30 -1 100 100 NNW 8 13 29.94 1014 1 2 0.00 0.00
11:30 am 11:30 Cloudy with Light Snow 30 -1 30 -1 100 100 NNW 8 13 29.94 1014 1 2 0.00 0.00
11:36 am 11:36 Cloudy with Light Snow 32 0 30 -1 93 93 NW 7 11 29.94 1014 1 2 0.00 0.00
11:50 am 11:50 Cloudy with Light Snow 32 0 30 -1 93 93 NW 10 17 29.94 1014 1 2 0.00 0.00
11:58 am 11:58 Cloudy with Light Snow 31 -0.7 30 -1.3 96 96 NNW 9 15 29.93 1013 1 2 0.00 0.03
12:04 pm 12:04 Cloudy with Light Snow 32 0 30 -1 93 93 NNW 8 13 29.94 1014 1 2 0.00 0.00
12:09 pm 12:09 Cloudy with Light Snow 32 0 30 -1 93 93 NNW 7 11 29.94 1014 2 3 0.00 0.00
12:16 pm 12:16 Cloudy with Light Snow 32 0 28 -2 87 87 NNW 7 11 29.94 1014 3 5 0.00 0.00
12:37 pm 12:37 Cloudy with Light Snow 32 0 28 -2 87 87 N 9 15 29.94 1014 5 8 0.00 0.00
12:46 pm 12:46 Cloudy with Light Snow 32 0 28 -2 87 87 NNW 9 15 29.94 1014 9 14 0.00 0.00
12:58 pm 12:58 Cloudy with Light Snow 31 -0.4 29 -1.8 90 90 N 8 13 29.94 1014 10 16 0.00 0.03
1:02 pm 13:02 Cloudy with Light Snow 32 0 28 -2 87 87 N 7 11 29.94 1014 10 16 0.00 0.00
1:34 pm 13:34 Cloudy 32 0 28 -2 87 87 N 9 15 29.94 1014 10 16 0.00 0.00
1:53 pm 13:53 Cloudy 32 0 27 -3 80 80 NNW 6 9 29.97 1015 10 16 0.00 0.00
1:58 pm 13:58 Cloudy 31 -0.7 27 -2.6 87 87 N 8 13 29.95 1014 10 16 0.02 0.51
2:30 pm 14:30 Mostly Cloudy 30 -1 27 -3 86 86 NNW 8 13 29.97 1015 10 16 0.00 0.00
2:31 pm 14:31 Mostly Cloudy 30 -1 27 -3 86 86 NNW 8 13 29.97 1015 10 16 0.00 0.00
2:48 pm 14:48 Cloudy 32 0 27 -3 80 80 N 6 9 29.97 1015 10 16 0.00 0.00
2:58 pm 14:58 Cloudy 31 -0.8 27 -2.7 87 87 N 6 9 29.98 1015 10 16 0.01 0.25
3:18 pm 15:18 Cloudy 32 0 27 -3 80 80 NE 3 6 30.00 1016 10 16 0.00 0.00
3:58 pm 15:58 Cloudy 30 -1.1 27 -2.9 88 88 Calm 30.01 1016 10 16 0.00 0.00
4:58 pm 16:58 Mostly Cloudy 27 -2.9 24 -4.3 90 90 NNW 9 15 30.02 1017 10 16 0.00 0.00
5:01 pm 17:01 Partly Cloudy 27 -3 25 -4 93 93 NNW 7 11 30.03 1017 10 16 0.00 0.00
5:05 pm 17:05 Mostly Cloudy 28 -2 25 -4 86 86 NNW 6 9 30.03 1017 10 16 0.00 0.00
5:58 pm 17:58 Cloudy 29 -1.7 26 -3.5 88 88 W 5 7 30.07 1018 10 16 0.00 0.00
6:44 pm 18:44 Cloudy 25 -4 23 -5 93 93 NNW 5 7 30.09 1019 10 16 0.00 0.00
6:56 pm 18:56 Mostly Cloudy 19 -7 19 -7 100 100 NW 2 4 30.12 1020 10 16 0.00 0.00
6:58 pm 18:58 Mostly Cloudy 19 -7 19 -7 100 100 NW 2 4 30.09 1019 10 16 0.00 0.00
6:59 pm 18:59 Partly Cloudy 19 -7 19 -7 100 100 NW 2 4 30.12 1020 10 16 0.00 0.00
7:35 pm 19:35 Clear with Mist and Fog 19 -7 18 -8 93 93 S 6 9 30.15 1021 3 4 0.00 0.00
7:37 pm 19:37 Clear with Mist and Fog 18 -8 16 -9 93 93 S 6 9 30.15 1021 2 2 0.00 0.00
7:45 pm 19:45 Partly Cloudy with Mist and Fog 18 -8 18 -8 100 100 S 3 6 30.15 1021 5 8 0.00 0.00
7:58 pm 19:58 Mostly Cloudy with Mist and Fog 20 -6.9 18 -7.7 94 94 SSW 1 2 30.12 1020 5 8 0.00 0.00
8:22 pm 20:22 Cloudy with Mist and Fog 21 -6 19 -7 93 93 Calm 30.18 1022 5 8 0.00 0.00
8:58 pm 20:58 Cloudy 23 -4.9 22 -5.3 97 97 S 2 4 30.14 1021 7 11 0.00 0.00
9:58 pm 21:58 Cloudy 26 -3.4 26 -3.6 99 99 S 2 4 30.16 1021 8 13 0.00 0.00
10:41 pm 22:41 Cloudy 27 -3 25 -4 93 93 N 2 4 30.18 1022 7 11 0.00 0.00
10:58 pm 22:58 Cloudy 27 -2.9 26 -3.5 96 96 Calm 30.18 1022 8 13 0.00 0.00
11:49 pm 23:49 Cloudy 28 -2 27 -3 93 93 SSE 5 7 30.21 1023 9 14 0.00 0.00
11:58 pm 23:58 Cloudy 28 -2.2 27 -2.9 95 95 S 2 4 30.19 1022 9 14 0.00 0.00

Powered by AerisWeather